Weather History for Selinsgrove, PA

Change the Weather History Date:

Friday, December 20, 2013

  Actual Average (KIPT) Record (KIPT)
Temperature  
Mean Temperature 37 °F 30 °F  
Max Temperature 46 °F 37 °F 62 °F (1957)
Min Temperature 28 °F 23 °F -6 °F (1951)
Degree Days  
Heating Degree Days 28 35  
Month to date heating degree days 646  
Since 1 July heating degree days 1891  
Cooling Degree Days 0 0  
Month to date cooling degree days 0  
Year to date cooling degree days 702  
Moisture  
Dew Point 28 °F    
Average Humidity 71    
Maximum Humidity 89    
Minimum Humidity 50    
Precipitation  
Precipitation 0.00 in 0.08 in 2.40 in (1957)
Month to date precipitation 2.04  
Year to date precipitation 40.39  
Snow  
Snow 0.00 in - - ()
Month to date snowfall  
Since 1 July snowfall  
Snow Depth -    
Sea Level Pressure  
Sea Level Pressure 30.01 in    
Wind  
Wind Speed 2 mph (SSW)    
Max Wind Speed 8 mph    
Max Gust Speed -    
Visibility 7 miles    
Events      
T = Trace of Precipitation, MM = Missing Value Source: NWS Daily Summary

Daily Weather History Graph

Daily Weather History Graph

Search for Another Location

Airport:

Trip Planner

Search our weather history database for the weather conditions in past years. The results will help you decide how hot, cold, wet, or windy it might be!

Date:

Astronomy

Dec. 20, 2013 Rise Set
Actual Time 7:27 AM EST 4:42 PM EST
Civil Twilight 6:56 AM EST 5:13 PM EST
Nautical Twilight 6:22 AM EST 5:48 PM EST
Astronomical Twilight 5:48 AM EST 6:21 PM EST
Moon 8:02 PM EST (12/20) 9:19 AM EST (12/20)
Length of Visible Light 10h 16m
Length of Day
9h 14m
Waning Gibbous, 90% of the Moon is Illuminated
Dec 20
Waning Gibbous
Dec 25
Last Quarter
Jan 1
New
Jan 7
First Quarter
Jan 15
Full

Hourly Weather History & Observations

Time (EST) Temp. Windchill Dew Point Humidity Pressure Visibility Wind Dir Wind Speed Gust Speed Precip Events Conditions
12:53 AM 28.0 °F - 25.0 °F 88% 30.09 in 5.0 mi Calm Calm - N/A   Clear
1:53 AM 28.9 °F - 25.0 °F 85% 30.09 in 5.0 mi Calm Calm - N/A   Clear
2:53 AM 28.9 °F - 25.0 °F 85% 30.08 in 6.0 mi Calm Calm - N/A   Clear
3:53 AM 28.0 °F - 25.0 °F 88% 30.07 in 5.0 mi Calm Calm - N/A   Clear
4:53 AM 28.9 °F - 26.1 °F 89% 30.06 in 5.0 mi Calm Calm - N/A   Partly Cloudy
5:53 AM 28.0 °F - 25.0 °F 88% 30.05 in 4.0 mi Calm Calm - N/A   Clear
6:53 AM 28.9 °F - 26.1 °F 89% 30.05 in 4.0 mi Calm Calm - N/A   Partly Cloudy
7:53 AM 30.0 °F - 26.1 °F 85% 30.05 in 3.0 mi Calm Calm - N/A   Overcast
8:53 AM 30.9 °F - 28.0 °F 89% 30.04 in 4.0 mi Calm Calm - N/A   Partly Cloudy
9:53 AM 33.1 °F - 28.0 °F 82% 30.04 in 4.0 mi Calm Calm - N/A   Haze
10:53 AM 35.1 °F - 30.0 °F 82% 30.04 in 4.0 mi Calm Calm - N/A   Haze
11:53 AM 37.9 °F 33.5 °F 30.9 °F 76% 30.01 in 5.0 mi South 5.8 mph - N/A   Haze
12:53 PM 42.1 °F 40.2 °F 30.0 °F 62% 29.99 in 8.0 mi SSW 3.5 mph - N/A   Overcast
1:53 PM 42.1 °F 40.2 °F 30.0 °F 62% 29.96 in 9.0 mi South 3.5 mph - N/A   Overcast
2:53 PM 45.0 °F 43.5 °F 28.9 °F 53% 29.95 in 10.0 mi WSW 3.5 mph - N/A   Overcast
3:53 PM 46.9 °F - 28.9 °F 50% 29.96 in 10.0 mi SW 6.9 mph - 0.00 in   Overcast
4:53 PM 46.9 °F - 28.9 °F 50% 29.96 in 10.0 mi SW 4.6 mph - N/A   Mostly Cloudy
5:53 PM 46.0 °F 41.9 °F 28.9 °F 51% 29.97 in 10.0 mi SSW 8.1 mph - N/A   Mostly Cloudy
6:53 PM 45.0 °F 41.8 °F 28.9 °F 53% 29.98 in 10.0 mi SSW 5.8 mph - N/A   Mostly Cloudy
7:53 PM 43.0 °F 39.5 °F 28.9 °F 58% 29.97 in 10.0 mi SSW 5.8 mph - N/A   Mostly Cloudy
8:53 PM 44.1 °F 42.5 °F 28.9 °F 55% 29.98 in 10.0 mi WSW 3.5 mph - N/A   Overcast
9:53 PM 43.0 °F 40.3 °F 30.0 °F 60% 29.98 in 10.0 mi SSW 4.6 mph - 0.00 in   Overcast
10:53 PM 42.1 °F 38.4 °F 30.9 °F 65% 29.96 in 10.0 mi South 5.8 mph - N/A   Overcast
11:53 PM 43.0 °F 38.2 °F 32.0 °F 65% 29.96 in 7.0 mi South 8.1 mph - N/A   Overcast